Location: Unspecified
(49.9820°N, 20.4363°E)
Time: 14:30:18
(UTC+01:00)

ISS - Pass Details

Date: 11 November 2018
Orbit: 401 x 408 km, 51.6° (Epoch: 16 November)

Event Time Altitude Azimuth Distance (km) Brightness Sun altitude
Exits shadow 05:08:54 32° 248° (WSW) 718 -3.1 -15.3°
Maximum altitude 05:09:46 40° 210° (SSW) 614 -3.1 -15.2°
Drops below altitude 10° 05:12:52 10° 139° (SE) 1,460 -0.2 -14.7°
Sets 05:15:01 0° 131° (SE) 2,319 1.1 -14.4°
